{"data":{"norad_id":43876,"epoch":"2026-09-20T05:14:35.922048Z","epoch_age_seconds":82593,"freshness":"FRESH","line1":"1 43876U 18111A   26263.21847132  .00001519  00000+0  68790-4 0  9996","line2":"2 43876  97.3469 166.7042 0001836  90.2942 269.8505 15.22364717429242","mean_motion":15.22364717,"eccentricity":0.0001836,"inclination_deg":97.3469,"raan_deg":166.7042,"arg_perigee_deg":90.2942,"mean_anomaly_deg":269.8505,"bstar":6.879e-5,"rev_number":42924,"period_min":94.589685633131,"perigee_km":497.4475054767,"apogee_km":499.97268372984,"semimajor_km":6876.8470946033,"source":"CELESTRAK","updated_at":"2026-09-20T09:00:14.414413Z"}}